Regional Weather Roundup
Issued by NWS

Home | Current Version | Previous Version | Graphics & Text | Print | Product List | Glossary On
Versions: 1 2 3 4 5 6 7 8 9 10 11 12 13 14 15 16 17 18 19 20 21 22 23 24 25 26 27 28 29 30 31 32 33 34 35 36 37 38 39 40 41 42 43 44 45 46 47 48
000
ASUS45 KCYS 281510
RWRWY

WYOMING REGIONAL WEATHER ROUNDUP
NATIONAL WEATHER SERVICE CHEYENNE WY
800 AM MST FRI NOV 28 2014

NOTE:  "FAIR" INDICATES FEW OR NO CLOUDS BELOW 12,000 FEET
WITH NO SIGNIFICANT WEATHER AND/OR OBSTRUCTIONS TO VISIBILITY.

WYZ001-281600-
YELLOWSTONE NATIONAL PARK

CITY           SKY/WX    TMP DP  RH WIND       PRES   REMARKS
LK YELLOWSTONE   N/A     37  20  50 VRB7      29.92F WCI  32
W YELLOWSTONE  NOT AVBL

$$
WYZ002>013-054>058-071-098>099-281600-
NORTHERN WYOMING

CITY           SKY/WX    TMP DP  RH WIND       PRES   REMARKS
JACKSON        CLEAR    N/A N/A N/A SW8       29.94F
CODY           MOCLDY    54  19  26 SW26G41   29.70R
GREYBULL       CLOUDY    32  27  81 CALM      29.77S
WORLAND        CLOUDY    27  23  85 S8        29.78F WCI  19
SHERIDAN       CLOUDY    53  23  31 W10       29.66F
BUFFALO        CLOUDY    47  25  42 S8        29.73F
GILLETTE       CLOUDY    46  27  47 SW16      29.71F
HULETT           N/A    N/A N/A N/A MISG        N/A
NEWCASTLE      FAIR      34  27  75 NE5       29.78F WCI  30

$$
WYZ014>020-022>026-101>103-281600-
CENTRAL WYOMING

CITY           SKY/WX    TMP DP  RH WIND       PRES   REMARKS
BIG PINEY      CLOUDY   N/A N/A N/A E5        30.03F
PINEDALE       CLOUDY    19  18  93 W5        30.03F WCI  13
DUBOIS         FAIR      41  16  36 NW13G25   29.91F
LANDER         MOCLDY    52  11  19 N10       29.85F
RIVERTON       MOCLDY    42  17  36 NW5       29.87F
CASPER         CLOUDY    44  20  38 SW18      29.86F
DOUGLAS        MOCLDY    49  21  33 W15       29.85R

$$
WYZ021-027>030-104>119-281600-
SOUTHERN WYOMING

CITY           SKY/WX    TMP DP  RH WIND       PRES   REMARKS
EVANSTON       MOCLDY    39  15  37 SW9       30.07F WCI  33
FORT BRIDGER   FAIR      39  17  39 W10       30.07F WCI  33
ROCK SPRINGS   PTCLDY    40  15  36 W8        30.05F WCI  34
DIXON          FAIR      44  16  32 SW12G20   30.12F
RAWLINS        CLOUDY    43  14  31 W22G31    30.02F
SARATOGA       FAIR      39  16  38 S9        30.08S WCI  33
LARAMIE        PTCLDY    41  14  33 SW12G24   30.02S
CHEYENNE       PTCLDY    49  14  24 W10       29.93F
TORRINGTON     MOCLDY    51  20  29 SW13      29.82S
PINE BLUFFS    FAIR      52  16  24 SW15G21   29.91S

$$



USA.gov is the U.S. government's official web portal to all federal, state and local government web resources and services.